| time (UTC) | temp C | wind direction | speed KPH | gust KPH | rain 1hr cm | rain 24hr cm | rain mn cm | humidity % | barometer mb |
| 20260507090004 | 10 | 163 | 1.6 | 6.4 | 0.00 | 0.10 | 0.03 | 95 | 1014.7 |
| 20260507085003 | 8 | 117 | 1.6 | 6.4 | 0.00 | 0.10 | 0.03 | 95 | 1014.4 |
| 20260507084003 | 7 | 107 | 6.4 | 6.4 | 0.00 | 0.10 | 0.03 | 94 | 1014.4 |
| 20260507083004 | 7 | 163 | 3.2 | 6.4 | 0.00 | 0.10 | 0.03 | 94 | 1014.5 |
| 20260507082003 | 5 | 84 | 3.2 | 8.0 | 0.00 | 0.10 | 0.03 | 97 | 1014.5 |
| 20260507081004 | 4 | 142 | 3.2 | 6.4 | 0.00 | 0.10 | 0.03 | 96 | 1014.4 |
| 20260507080004 | 3 | 89 | 3.2 | 6.4 | 0.00 | 0.10 | 0.03 | 96 | 1014.4 |
| 20260507075003 | 3 | 101 | 3.2 | 9.7 | 0.00 | 0.10 | 0.03 | 96 | 1014.4 |
| 20260507074003 | 3 | 151 | 3.2 | 4.8 | 0.00 | 0.10 | 0.03 | 96 | 1014.3 |
| 20260507073003 | 3 | 114 | 1.6 | 4.8 | 0.00 | 0.10 | 0.03 | 95 | 1014.4 |
| 20260507072003 | 3 | 109 | 1.6 | 6.4 | 0.00 | 0.10 | 0.03 | 95 | 1014.4 |
| 20260507071004 | 3 | 109 | 3.2 | 6.4 | 0.00 | 0.10 | 0.03 | 95 | 1014.2 |
| 20260507070218 | 3 | 148 | 4.8 | 9.7 | 0.00 | 0.10 | 0.03 | 95 | 1014.4 |
| 20260507065004 | 3 | 123 | 6.4 | 11.3 | 0.00 | 0.10 | 0.03 | 95 | 1014.2 |
| 20260507064003 | 3 | 69 | 6.4 | 9.7 | 0.00 | 0.10 | 0.03 | 95 | 1014.1 |
| 20260507063004 | 3 | 130 | 3.2 | 9.7 | 0.00 | 0.10 | 0.03 | 95 | 1014.2 |
| 20260507062003 | 3 | 143 | 3.2 | 6.4 | 0.00 | 0.10 | 0.03 | 95 | 1014.3 |
| 20260507061003 | 3 | 123 | 3.2 | 6.4 | 0.00 | 0.10 | 0.03 | 95 | 1014.3 |
| 20260507060213 | 2 | 145 | 1.6 | 8.0 | 0.00 | 0.10 | 0.03 | 95 | 1014.2 |
| 20260507055003 | 2 | 112 | 3.2 | 6.4 | 0.00 | 0.10 | 0.03 | 94 | 1014.2 |
| 20260507054215 | 2 | 169 | 4.8 | 6.4 | 0.00 | 0.10 | 0.03 | 94 | 1014.2 |
| 20260507053005 | 2 | 130 | 3.2 | 6.4 | 0.00 | 0.10 | 0.03 | 94 | 1014.2 |
| 20260507052003 | 2 | 80 | 3.2 | 12.9 | 0.00 | 0.10 | 0.03 | 94 | 1014.2 |
| 20260507051003 | 3 | 121 | 4.8 | 8.0 | 0.00 | 0.10 | 0.03 | 94 | 1014.1 |
| 20260507050004 | 3 | 146 | 3.2 | 11.3 | 0.03 | 0.10 | 0.03 | 94 | 1014.3 |
| 20260507045003 | 3 | 121 | 6.4 | 14.5 | 0.03 | 0.10 | 0.03 | 94 | 1014.2 |
| 20260507044003 | 3 | 101 | 6.4 | 8.0 | 0.03 | 0.10 | 0.03 | 94 | 1014.3 |
| 20260507043217 | 3 | 77 | 3.2 | 8.0 | 0.03 | 0.10 | 0.03 | 94 | 1014.6 |
| 20260507042003 | 3 | 219 | 0.0 | 6.4 | 0.03 | 0.10 | 0.03 | 94 | 1014.5 |
| 20260507041004 | 3 | 232 | 3.2 | 6.4 | 0.03 | 0.10 | 0.03 | 94 | 1014.3 |
| 20260507040004 | 3 | 79 | 3.2 | 12.9 | 0.00 | 0.05 | 0.00 | 94 | 1014.3 |
| 20260507035003 | 3 | 89 | 6.4 | 11.3 | 0.00 | 0.05 | 0.00 | 94 | 1014.3 |
| 20260507034004 | 3 | 120 | 6.4 | 14.5 | 0.00 | 0.05 | 0.00 | 94 | 1014.3 |
| 20260507033004 | 3 | 170 | 3.2 | 14.5 | 0.00 | 0.05 | 0.00 | 94 | 1014.3 |
| 20260507032003 | 3 | 124 | 6.4 | 16.1 | 0.00 | 0.05 | 0.00 | 94 | 1014.2 |
| 20260507031003 | 3 | 73 | 4.8 | 8.0 | 0.00 | 0.05 | 0.00 | 94 | 1014.3 |
| 20260507030004 | 3 | 247 | 3.2 | 11.3 | 0.00 | 0.05 | 0.00 | 94 | 1014.5 |
| 20260507025003 | 3 | 251 | 4.8 | 17.7 | 0.00 | 0.05 | 0.00 | 94 | 1014.6 |
| 20260507024003 | 3 | 96 | 3.2 | 11.3 | 0.00 | 0.05 | 0.00 | 93 | 1014.7 |
| 20260507023003 | 3 | 83 | 4.8 | 12.9 | 0.00 | 0.05 | 0.00 | 93 | 1014.7 |
| 20260507022003 | 3 | 111 | 3.2 | 9.7 | 0.00 | 0.05 | 0.00 | 93 | 1015.0 |
| 20260507021004 | 3 | 150 | 3.2 | 8.0 | 0.00 | 0.05 | 0.00 | 93 | 1014.7 |
| 20260507020216 | 3 | 182 | 4.8 | 6.4 | 0.00 | 0.05 | 0.00 | 93 | 1014.8 |
| 20260507015004 | 3 | 198 | 4.8 | 12.9 | 0.00 | 0.05 | 0.00 | 92 | 1014.7 |
| 20260507014003 | 3 | 4 | 6.4 | 12.9 | 0.00 | 0.05 | 0.00 | 92 | 1014.8 |
| 20260507013003 | 3 | 76 | 3.2 | 11.3 | 0.00 | 0.05 | 0.00 | 92 | 1014.9 |
| 20260507012003 | 3 | 125 | 3.2 | 11.3 | 0.00 | 0.05 | 0.00 | 91 | 1015.3 |
| 20260507011003 | 3 | 223 | 3.2 | 9.7 | 0.00 | 0.05 | 0.00 | 91 | 1015.2 |
| 20260507010003 | 3 | 258 | 4.8 | 9.7 | 0.00 | 0.05 | 0.00 | 91 | 1015.3 |
| 20260507005004 | 3 | 260 | 3.2 | 9.7 | 0.00 | 0.05 | 0.00 | 90 | 1015.3 |
| 20260507004003 | 3 | 155 | 3.2 | 9.7 | 0.00 | 0.05 | 0.00 | 89 | 1015.6 |
| 20260507003003 | 2 | 243 | 3.2 | 6.4 | 0.00 | 0.05 | 0.00 | 88 | 1015.4 |
| 20260507002215 | 2 | 229 | 3.2 | 4.8 | 0.00 | 0.05 | 0.00 | 87 | 1015.3 |
| 20260507001004 | 2 | 234 | 1.6 | 3.2 | 0.00 | 0.05 | 0.00 | 86 | 1015.6 |
| 20260507000004 | 2 | 261 | 1.6 | 6.4 | 0.00 | 0.05 | 0.00 | 86 | 1015.5 |
| 20260506235004 | 2 | 162 | 1.6 | 3.2 | 0.00 | 0.05 | 0.00 | 85 | 1015.8 |
| 20260506234003 | 3 | 208 | 1.6 | 3.2 | 0.00 | 0.05 | 0.00 | 85 | 1015.8 |
| 20260506233004 | 3 | 113 | 0.0 | 3.2 | 0.00 | 0.05 | 0.00 | 86 | 1015.8 |
| 20260506232004 | 3 | 83 | 0.0 | 3.2 | 0.00 | 0.05 | 0.00 | 86 | 1015.8 |
| 20260506231003 | 3 | 45 | 1.6 | 3.2 | 0.00 | 0.05 | 0.00 | 86 | 1016.0 |
| 20260506230003 | 3 | 40 | 1.6 | 3.2 | 0.00 | 0.05 | 0.00 | 86 | 1015.9 |
| 20260506225213 | 3 | 42 | 1.6 | 3.2 | 0.00 | 0.05 | 0.00 | 86 | 1015.9 |
| 20260506224003 | 3 | 35 | 0.0 | 3.2 | 0.00 | 0.05 | 0.00 | 86 | 1016.0 |
| 20260506223004 | 3 | 41 | 0.0 | 3.2 | 0.00 | 0.05 | 0.00 | 85 | 1015.9 |
| 20260506222216 | 3 | 0 | 0.0 | 0.0 | 0.00 | 0.05 | 0.00 | 85 | 1016.0 |
| 20260506221003 | 3 | 45 | 0.0 | 1.6 | 0.00 | 0.05 | 0.00 | 85 | 1016.1 |
| 20260506220004 | 4 | 45 | 0.0 | 3.2 | 0.00 | 0.05 | 0.00 | 84 | 1016.2 |
| 20260506215003 | 4 | 270 | 0.0 | 1.6 | 0.00 | 0.05 | 0.05 | 83 | 1016.0 |
| 20260506214003 | 4 | 0 | 0.0 | 0.0 | 0.00 | 0.05 | 0.05 | 83 | 1016.2 |
| 20260506213216 | 4 | 0 | 0.0 | 0.0 | 0.00 | 0.05 | 0.05 | 84 | 1016.2 |
| 20260506212003 | 4 | 180 | 0.0 | 1.6 | 0.00 | 0.05 | 0.05 | 85 | 1016.3 |
| 20260506211218 | 4 | 0 | 0.0 | 0.0 | 0.00 | 0.05 | 0.05 | 86 | 1016.5 |
| 20260506210004 | 4 | 276 | 0.0 | 3.2 | 0.00 | 0.05 | 0.05 | 86 | 1016.2 |
| 20260506205004 | 4 | 277 | 1.6 | 3.2 | 0.00 | 0.05 | 0.05 | 85 | 1016.2 |
| 20260506204003 | 5 | 274 | 1.6 | 3.2 | 0.00 | 0.05 | 0.05 | 85 | 1016.1 |
| 20260506203003 | 5 | 225 | 0.0 | 3.2 | 0.00 | 0.05 | 0.05 | 85 | 1016.3 |
| 20260506202004 | 5 | 183 | 3.2 | 3.2 | 0.00 | 0.05 | 0.05 | 84 | 1016.1 |
| 20260506201003 | 5 | 201 | 1.6 | 3.2 | 0.00 | 0.05 | 0.05 | 83 | 1016.2 |
| 20260506200003 | 5 | 213 | 1.6 | 3.2 | 0.00 | 0.05 | 0.05 | 83 | 1016.0 |
| 20260506195003 | 5 | 215 | 3.2 | 4.8 | 0.00 | 0.05 | 0.05 | 82 | 1016.0 |
| 20260506194003 | 5 | 178 | 1.6 | 3.2 | 0.00 | 0.05 | 0.05 | 82 | 1016.1 |
| 20260506193003 | 5 | 187 | 1.6 | 3.2 | 0.00 | 0.05 | 0.05 | 83 | 1016.1 |
| 20260506192003 | 5 | 180 | 3.2 | 3.2 | 0.00 | 0.05 | 0.05 | 83 | 1016.1 |
| 20260506191003 | 5 | 190 | 1.6 | 3.2 | 0.00 | 0.05 | 0.05 | 83 | 1015.8 |
| 20260506190004 | 5 | 180 | 1.6 | 3.2 | 0.00 | 0.05 | 0.05 | 84 | 1015.9 |
| 20260506185003 | 5 | 184 | 1.6 | 3.2 | 0.00 | 0.10 | 0.05 | 83 | 1016.0 |
| 20260506184003 | 5 | 225 | 0.0 | 1.6 | 0.00 | 0.10 | 0.05 | 84 | 1015.9 |
| 20260506183005 | 5 | 90 | 0.0 | 1.6 | 0.00 | 0.10 | 0.05 | 84 | 1015.8 |
| 20260506182004 | 5 | 0 | 0.0 | 0.0 | 0.00 | 0.10 | 0.05 | 85 | 1015.8 |
| 20260506181004 | 5 | 225 | 0.0 | 1.6 | 0.03 | 0.13 | 0.05 | 85 | 1016.0 |
| 20260506180004 | 5 | 225 | 0.0 | 3.2 | 0.03 | 0.15 | 0.05 | 85 | 1015.9 |
| 20260506175003 | 6 | 225 | 1.6 | 3.2 | 0.03 | 0.20 | 0.05 | 85 | 1015.9 |
| 20260506174003 | 6 | 217 | 0.0 | 3.2 | 0.03 | 0.23 | 0.05 | 85 | 1015.9 |
| 20260506173004 | 6 | 204 | 1.6 | 3.2 | 0.03 | 0.23 | 0.05 | 84 | 1016.0 |
| 20260506172214 | 6 | 266 | 0.0 | 1.6 | 0.05 | 0.23 | 0.05 | 83 | 1016.1 |
| 20260506171003 | 6 | 315 | 0.0 | 1.6 | 0.03 | 0.20 | 0.03 | 84 | 1016.2 |
| 20260506170004 | 6 | 208 | 0.0 | 3.2 | 0.03 | 0.20 | 0.03 | 84 | 1016.1 |
| 20260506165003 | 6 | 215 | 1.6 | 3.2 | 0.03 | 0.20 | 0.03 | 81 | 1016.1 |
| 20260506164003 | 6 | 204 | 0.0 | 3.2 | 0.03 | 0.20 | 0.03 | 76 | 1016.0 |
| 20260506163003 | 7 | 191 | 1.6 | 3.2 | 0.03 | 0.20 | 0.03 | 68 | 1016.0 |
| 20260506162004 | 8 | 299 | 0.0 | 3.2 | 0.00 | 0.18 | 0.00 | 62 | 1016.1 |
| 20260506161004 | 9 | 312 | 0.0 | 3.2 | 0.00 | 0.18 | 0.00 | 60 | 1015.9 |
| 20260506160217 | 9 | 317 | 0.0 | 4.8 | 0.00 | 0.18 | 0.00 | 59 | 1016.0 |
| 20260506155003 | 9 | 323 | 3.2 | 4.8 | 0.00 | 0.18 | 0.00 | 59 | 1016.0 |
| 20260506154214 | 10 | 344 | 3.2 | 4.8 | 0.00 | 0.18 | 0.00 | 60 | 1016.1 |
| 20260506153003 | 9 | 345 | 0.0 | 4.8 | 0.00 | 0.18 | 0.00 | 59 | 1016.4 |
| 20260506152003 | 10 | 331 | 1.6 | 4.8 | 0.00 | 0.18 | 0.00 | 55 | 1016.1 |
| 20260506151003 | 10 | 280 | 1.6 | 6.4 | 0.00 | 0.18 | 0.00 | 55 | 1016.3 |
| 20260506150004 | 11 | 323 | 1.6 | 3.2 | 0.00 | 0.18 | 0.00 | 57 | 1016.4 |
| 20260506145003 | 10 | 121 | 1.6 | 3.2 | 0.00 | 0.18 | 0.00 | 59 | 1016.6 |
| 20260506144004 | 11 | 177 | 1.6 | 4.8 | 0.00 | 0.18 | 0.00 | 57 | 1016.5 |
| 20260506143004 | 11 | 41 | 1.6 | 3.2 | 0.00 | 0.18 | 0.00 | 60 | 1016.4 |
| 20260506142004 | 10 | 243 | 3.2 | 3.2 | 0.00 | 0.18 | 0.00 | 60 | 1016.5 |
| 20260506141003 | 10 | 246 | 1.6 | 3.2 | 0.00 | 0.18 | 0.00 | 63 | 1016.4 |
| 20260506140004 | 9 | 231 | 0.0 | 3.2 | 0.00 | 0.18 | 0.00 | 63 | 1016.5 |
| 20260506135003 | 8 | 262 | 0.0 | 3.2 | 0.00 | 0.18 | 0.00 | 62 | 1016.6 |
| 20260506134215 | 9 | 300 | 3.2 | 3.2 | 0.00 | 0.18 | 0.00 | 60 | 1016.9 |
| 20260506133004 | 8 | 324 | 1.6 | 3.2 | 0.00 | 0.18 | 0.00 | 60 | 1016.7 |
| 20260506132003 | 8 | 317 | 0.0 | 4.8 | 0.00 | 0.18 | 0.00 | 61 | 1016.6 |
| 20260506131004 | 8 | 314 | 1.6 | 4.8 | 0.00 | 0.18 | 0.00 | 60 | 1016.9 |
| 20260506130004 | 8 | 316 | 3.2 | 4.8 | 0.00 | 0.18 | 0.00 | 61 | 1016.6 |
| 20260506125215 | 8 | 313 | 3.2 | 4.8 | 0.00 | 0.18 | 0.00 | 61 | 1016.8 |
| 20260506124004 | 8 | 332 | 3.2 | 3.2 | 0.00 | 0.18 | 0.00 | 61 | 1017.0 |
| 20260506123004 | 8 | 323 | 1.6 | 6.4 | 0.00 | 0.18 | 0.00 | 61 | 1016.7 |
| 20260506122003 | 8 | 322 | 1.6 | 3.2 | 0.00 | 0.18 | 0.00 | 62 | 1017.0 |
| 20260506121003 | 8 | 309 | 1.6 | 4.8 | 0.00 | 0.18 | 0.00 | 64 | 1016.9 |
| 20260506120004 | 8 | 324 | 3.2 | 4.8 | 0.00 | 0.18 | 0.00 | 63 | 1016.9 |
| 20260506115003 | 8 | 315 | 3.2 | 4.8 | 0.00 | 0.18 | 0.00 | 62 | 1017.1 |
| 20260506114004 | 8 | 312 | 3.2 | 6.4 | 0.00 | 0.18 | 0.00 | 62 | 1017.1 |
| 20260506113003 | 8 | 316 | 3.2 | 3.2 | 0.00 | 0.18 | 0.00 | 65 | 1017.0 |
| 20260506112003 | 7 | 316 | 1.6 | 4.8 | 0.00 | 0.18 | 0.00 | 68 | 1017.3 |
| 20260506111003 | 7 | 299 | 3.2 | 4.8 | 0.00 | 0.18 | 0.00 | 63 | 1017.3 |
| 20260506110003 | 8 | 318 | 1.6 | 4.8 | 0.00 | 0.18 | 0.00 | 61 | 1017.2 |
| 20260506105003 | 8 | 326 | 3.2 | 6.4 | 0.00 | 0.18 | 0.00 | 63 | 1017.1 |
| 20260506104004 | 8 | 294 | 1.6 | 4.8 | 0.00 | 0.18 | 0.00 | 65 | 1017.1 |
| 20260506103003 | 8 | 244 | 1.6 | 6.4 | 0.00 | 0.18 | 0.00 | 64 | 1017.1 |
| 20260506102003 | 7 | 326 | 3.2 | 6.4 | 0.00 | 0.18 | 0.00 | 69 | 1016.9 |
| 20260506101003 | 6 | 303 | 3.2 | 4.8 | 0.00 | 0.18 | 0.00 | 75 | 1017.0 |
| 20260506100216 | 6 | 299 | 3.2 | 3.2 | 0.00 | 0.18 | 0.00 | 73 | 1016.9 |
| 20260506095217 | 6 | 324 | 3.2 | 6.4 | 0.00 | 0.18 | 0.00 | 74 | 1016.9 |
| 20260506094212 | 6 | 315 | 1.6 | 3.2 | 0.00 | 0.18 | 0.00 | 73 | 1016.9 |
| 20260506093004 | 7 | 342 | 3.2 | 6.4 | 0.00 | 0.18 | 0.00 | 69 | 1016.9 |
| 20260506092003 | 7 | 311 | 3.2 | 6.4 | 0.00 | 0.18 | 0.00 | 74 | 1016.8 |
| 20260506091215 | 7 | 310 | 3.2 | 6.4 | 0.00 | 0.18 | 0.00 | 83 | 1016.6 |